DECAYED

NOAA 16 DEB, 42423 (Decayed)

Orbit data source: Space-Track

NOAA 16 DEB, 42423 was space debris in SSO originally from a launch on Thu, 21 Sep 2000 UTC launched from the Air Force Western Test Range (AFWTR). Debris objects in space refer to the collection of defunct objects orbiting the Earth. Examples of debris include non-operational satellites, rocket bodies, and fragments generated from explosions, collisions, or faulty payload assembly.

Not visible in the next 10 days
Identifier
42423, 2000-055TT
Orbit
Decayed
Country
Flag of USUS
Related business
Manufacturer
Unknown
Mission
Decayed spacecraft
Bus & Motor
Unknown
Mass
Unknown
Launch date (UTC)
2000-09-21 (26 years ago)
Launch vehicle
Unknown
Launch site
Air Force Western Test Range (AFWTR)
Object type
Payload
Rocket body
Debris
Shape & HBR
Unknown shape, 0.1 m
Radar Cross Section
Small (<0.1 m²)

Expand to show TLE details & history
Last TLE update: 6 months ago

TLE from 6 months ago
0 NOAA 16 DEB
1 42423U 00055TT  25270.40269298  .00300673  00000-0  20752-1 0  9997
2 42423  98.8930  71.4924 0008122 306.0884  53.9586 15.04195873490599
Epoch: 2025-09-27T09:39Z
TLE epoch observation values (Epoch: 2025-09-27T09:39:52.673Z)
Latitude
0.00005°
Longitude
-79.9127°
Altitude
553.687 km
Speed
7.587 km/s
True Right ascension
04h 45m 58s
True Declination
0° 00' 00"
Sunlit
Object was in daylight at epoch
Visualization orbit readout
Latitude
Unknown
Longitude
Unknown
Altitude
Unknown
Speed
Unknown
Apparent Right ascension
Unknown
Apparent Declination
Unknown
Sunlit
N/A
Visualization observer readout
Local Sidereal Time
04:17:46
Azimuth
Unknown
Elevation
Unknown
Doppler factor
Unknown
Orbital elements
Apogee altitude
556.659 km
Perigee altitude
545.404 km
Semi-major axis
6,929.168 km
Eccentricity
0.00081
Inclination
98.893°
RAAN
71.4924°
Arg. of periapsis
306.0884°
True anomaly
54.0339°
Mean anomaly
53.9586°
Eccentric anomaly
53.99625°
Mean motion
3.76289 °/min
Orbital period
95.67 mins
BSTAR
0.020752
Loading maneuver chart data...
Computing Atmospheric mass density...
Loading historical data...
Loading historical data...
Loading historical data...
Loading historical data...
Loading historical data...
Loading historical data...
Loading historical data...

Documentation

Showing up to 5 results
|